Weather History for Luxor, Egypt

Change the Weather History Date:

Monday, August 26, 2013

  Actual Average Record
Temperature  
Mean Temperature 88 °F -  
Max Temperature 99 °F 100 °F 110 °F (2014)
Min Temperature 76 °F 73 °F 69 °F (1996)
Cooling Degree Days 22    
Growing Degree Days 38 (Base 50)    
Moisture  
Dew Point 58 °F    
Average Humidity 33    
Maximum Humidity 47    
Minimum Humidity 17    
Precipitation  
Precipitation 0.00 in 0.00 in - ()
Sea Level Pressure  
Sea Level Pressure 29.74 in    
Wind  
Wind Speed 5 mph ()    
Max Wind Speed 17 mph    
Max Gust Speed -    
Visibility 6.0 miles    
Events      
Averages and records for this station are not official NWS values.
T = Trace of Precipitation, MM = Missing Value Source: Averaged Metar Reports

Daily Weather History Graph

Daily Weather History Graph

Search for Another Location

Airport:

Trip Planner

Search our weather history database for the weather conditions in past years. The results will help you decide how hot, cold, wet, or windy it might be!

Date:

Astronomy

Aug. 26, 2013 Rise Set
Actual Time 5:27 AM EET 6:14 PM EET
Civil Twilight 5:03 AM EET 6:38 PM EET
Nautical Twilight 4:35 AM EET 7:05 PM EET
Astronomical Twilight 4:07 AM EET 7:33 PM EET
Moon 9:51 PM EET (8/26) 10:29 AM EET (8/26)
Length of Visible Light 13h 34m
Length of Day
12h 47m
Waning Gibbous, 69% of the Moon is Illuminated
Aug 26
Waning Gibbous
Aug 28
Last Quarter
Sep 5
New
Sep 12
First Quarter
Sep 19
Full

Hourly Weather History & Observations

Time (EET) Temp. Heat Index Dew Point Humidity Pressure Visibility Wind Dir Wind Speed Gust Speed Precip Events Conditions
12:00 AM 84.2 °F 83.5 °F 57.2 °F 40% 29.74 in - Calm Calm - N/A   Clear
1:00 AM 82.4 °F 82.0 °F 57.2 °F 42% 29.74 in - Calm Calm - N/A   Clear
2:00 AM 81 °F - 58 °F 35% 29.73 in 6 mi SW 2.3 mph - -  
2:00 AM 80.6 °F 80.8 °F 57.2 °F 45% 29.74 in - NW 2.3 mph - N/A   Clear
3:00 AM 78.8 °F - 57.2 °F 47% 29.74 in - Calm Calm - N/A   Clear
8:00 AM 87 °F - 62 °F 34% 29.78 in 6 mi SW 3.5 mph - -  
9:00 AM 91.4 °F 92.1 °F 62.6 °F 38% 29.80 in - West 5.8 mph - N/A   Clear
10:00 AM 95.0 °F 94.4 °F 59.0 °F 30% 29.77 in - WNW 10.4 mph - N/A   Clear
11:00 AM 95.0 °F 94.4 °F 59.0 °F 30% 29.77 in - WNW 16.1 mph - N/A   Clear
12:00 PM 96.8 °F 97.1 °F 60.8 °F 30% 29.74 in - WNW 17.3 mph - N/A   Clear
1:00 PM 96.8 °F 99.0 °F 64.4 °F 34% 29.74 in - WNW 17.3 mph - N/A   Clear
2:00 PM 99 °F - 59 °F 17% 29.71 in 6 mi WNW 15.0 mph - -  
3:00 PM 98.6 °F 99.4 °F 60.8 °F 29% 29.71 in - WNW 12.7 mph - N/A   Clear
4:00 PM 98.6 °F 98.5 °F 59.0 °F 27% 29.71 in - WNW 11.5 mph - N/A   Clear
5:00 PM 96.8 °F 95.8 °F 57.2 °F 27% 29.71 in - WNW 9.2 mph - N/A   Clear
7:00 PM 89.6 °F 87.3 °F 53.6 °F 29% 29.71 in - West 6.9 mph - N/A   Clear
8:00 PM 89 °F - 54 °F 21% 29.72 in 6 mi West 6.9 mph - -  
8:00 PM - - - N/A% 29.74 in - West 6.9 mph - N/A   Clear
9:00 PM 87.8 °F 85.7 °F 53.6 °F 31% 29.74 in - WNW 6.9 mph - N/A   Clear
10:00 PM 87.8 °F 86.1 °F 55.4 °F 33% 29.74 in - West 6.9 mph - N/A   Clear
11:00 PM 84.2 °F 83.0 °F 55.4 °F 37% 29.74 in - WSW 2.3 mph - N/A   Clear